Date,TemperatureHighF,TemperatureAvgF,TemperatureLowF,DewpointHighF,DewpointAvgF,DewpointLowF,HumidityHigh,HumidityAvg,HumidityLow,PressureMaxIn,PressureMinIn,WindSpeedMaxMPH,WindSpeedAvgMPH,GustSpeedMaxMPH,PrecipitationSumIn
2013-2-1,86,80,78,82,78,77,96,94,87,30.27,30.15,19,10,19,0.00
2013-2-2,88,80,77,80,77,75,96,90,75,30.27,30.12,18,7,18,0.00
2013-2-3,85,79,75,80,76,73,98,91,83,30.21,30.12,15,8,15,0.30
2013-2-4,86,78,73,77,74,71,96,87,70,30.18,30.06,13,4,13,0.00
2013-2-5,90,78,72,82,75,0,100,91,75,30.15,30.06,12,2,12,0.00
2013-2-6,88,79,72,82,76,71,98,92,78,30.21,30.06,115,3,115,0.00
2013-2-7,90,79,73,82,76,72,97,90,74,30.18,30.06,13,3,13,0.00
2013-2-8,87,79,72,79,76,71,98,90,74,30.18,30.06,11,4,172,0.00
2013-2-9,88,80,73,83,77,72,97,91,78,30.21,30.12,115,5,115,3.58
2013-2-10,89,81,77,81,77,74,96,88,72,30.27,30.12,18,5,18,0.00
2013-2-11,89,79,76,83,78,75,97,94,83,30.24,30.15,10,2,10,3.74
2013-2-12,93,81,75,84,77,74,98,90,70,30.24,30.06,10,2,10,0.00
2013-2-13,76,75,73,75,74,72,98,97,96,30.12,30.06,4,0,4,0.00
2013-2-14,95,84,73,81,76,72,98,80,55,30.15,30.06,13,3,13,0.19
2013-2-15,93,80,72,84,76,72,98,91,72,30.18,30.03,12,1,12,0.13
2013-2-16,89,78,71,82,76,70,98,93,76,30.18,30.03,29,6,29,0.00
2013-2-17,77,75,72,75,71,68,96,89,82,30.27,30.12,24,16,24,0.00
2013-2-18,77,74,71,76,72,68,98,94,87,30.27,30.15,20,10,20,0.00
2013-2-19,89,80,76,84,76,68,97,90,73,30.21,30.12,14,5,14,0.16
2013-2-20,89,80,76,82,77,0,97,90,79,30.18,30.06,12,3,12,0.00
2013-2-21,92,81,76,83,78,75,98,91,73,30.15,30.06,13,4,13,0.00
2013-2-22,95,80,72,84,77,71,98,89,63,30.15,30.06,12,2,12,0.00
2013-2-23,96,82,73,84,76,72,98,86,58,30.15,30.06,12,2,12,0.00
2013-2-24,94,79,74,84,77,73,98,92,63,30.15,30.00,12,1,12,0.17
2013-2-25,95,81,72,82,76,0,98,87,58,30.06,29.91,18,4,18,0.00
2013-2-26,93,82,76,83,78,75,97,89,70,30.09,29.94,18,4,18,0.00
2013-2-27,97,82,72,84,76,71,98,84,49,30.15,30.00,13,2,13,0.00
2013-2-28,92,79,71,82,75,70,98,89,69,30.15,30.03,9,2,9,0.00